Previsão horária em Abovyan

Hoje, 17 Maio, Segunda-feira

Tempo Temperatura Precipitação Vento Pressão Humidade
00:00 +19°C° 0 mm 1 m/s 668 mmHg 50%
01:00 +18°C° 0 mm 2 m/s 668 mmHg 51%
02:00 +17°C° 0 mm 2 m/s 668 mmHg 51%
03:00 +17°C° 0 mm 2 m/s 667 mmHg 53%
04:00 +18°C° 0 mm 2 m/s 667 mmHg 53%
05:00 +19°C° 0 mm 1 m/s 668 mmHg 53%
06:00 +20°C° 0 mm 1 m/s 668 mmHg 54%
07:00 +21°C° 0 mm 2 m/s 668 mmHg 47%
08:00 +24°C° 0 mm 2 m/s 668 mmHg 40%
09:00 +26°C° 0 mm 2 m/s 669 mmHg 33%
10:00 +27°C° 0 mm 3 m/s 668 mmHg 31%
11:00 +28°C° 0 mm 4 m/s 668 mmHg 28%
12:00 +29°C° 0 mm 5 m/s 668 mmHg 26%
13:00 +28°C° 0.3 mm 5 m/s 668 mmHg 32%
14:00 +26°C° 0.3 mm 6 m/s 667 mmHg 39%
15:00 +23°C° 0.3 mm 7 m/s 666 mmHg 45%
16:00 +23°C° 0 mm 5 m/s 666 mmHg 44%
17:00 +25°C° 0 mm 4 m/s 666 mmHg 44%
18:00 +25°C° 0 mm 2 m/s 665 mmHg 44%
19:00 +24°C° 0 mm 3 m/s 666 mmHg 42%
20:00 +22°C° 0 mm 4 m/s 666 mmHg 40%
21:00 +20°C° 0 mm 5 m/s 667 mmHg 39%
22:00 +19°C° 0 mm 4 m/s 667 mmHg 40%
23:00 +18°C° 0 mm 3 m/s 667 mmHg 41%

Amanhã, 18 Maio, Terça-feira

Tempo Temperatura Precipitação Vento Pressão Humidade
00:00 +17°C° 0 mm 2 m/s 667 mmHg 43%
01:00 +16°C° 0 mm 2 m/s 667 mmHg 44%
02:00 +16°C° 0 mm 2 m/s 666 mmHg 45%
03:00 +15°C° 0 mm 2 m/s 666 mmHg 46%
04:00 +16°C° 0 mm 2 m/s 667 mmHg 47%
05:00 +16°C° 0 mm 1 m/s 667 mmHg 48%
06:00 +18°C° 0 mm 1 m/s 668 mmHg 49%
07:00 +18°C° 0 mm 2 m/s 668 mmHg 44%
08:00 +20°C° 0 mm 2 m/s 669 mmHg 39%
09:00 +23°C° 0 mm 2 m/s 669 mmHg 34%
10:00 +24°C° 0 mm 3 m/s 669 mmHg 32%
11:00 +25°C° 0 mm 3 m/s 669 mmHg 29%
12:00 +26°C° 0 mm 4 m/s 669 mmHg 27%
13:00 +27°C° 0 mm 4 m/s 669 mmHg 26%
14:00 +27°C° 0 mm 4 m/s 669 mmHg 25%
15:00 +27°C° 0 mm 4 m/s 669 mmHg 25%
16:00 +27°C° 0 mm 3 m/s 669 mmHg 28%
17:00 +26°C° 0 mm 3 m/s 669 mmHg 31%
18:00 +26°C° 0 mm 3 m/s 669 mmHg 35%
19:00 +24°C° 0 mm 2 m/s 669 mmHg 37%
20:00 +21°C° 0 mm 2 m/s 669 mmHg 39%
21:00 +19°C° 0 mm 2 m/s 669 mmHg 42%
22:00 +18°C° 0 mm 2 m/s 669 mmHg 43%
23:00 +18°C° 0 mm 2 m/s 669 mmHg 44%

Depois de amanhã, 19 Maio, Quarta-feira

Tempo Temperatura Precipitação Vento Pressão Humidade
00:00 +17°C° 0 mm 2 m/s 668 mmHg 45%
01:00 +17°C° 0 mm 2 m/s 668 mmHg 46%
02:00 +18°C° 0 mm 1 m/s 668 mmHg 47%
03:00 +16°C° 0 mm 1 m/s 668 mmHg 49%
04:00 +18°C° 0 mm 1 m/s 669 mmHg 49%
05:00 +18°C° 0 mm 1 m/s 669 mmHg 50%
06:00 +19°C° 0 mm 1 m/s 669 mmHg 51%
07:00 +21°C° 0 mm 1 m/s 670 mmHg 46%
08:00 +23°C° 0 mm 1 m/s 670 mmHg 40%
09:00 +25°C° 0 mm 2 m/s 670 mmHg 35%
10:00 +26°C° 0 mm 2 m/s 670 mmHg 33%
11:00 +27°C° 0 mm 2 m/s 670 mmHg 31%
12:00 +28°C° 0 mm 2 m/s 670 mmHg 29%
13:00 +29°C° 0 mm 2 m/s 670 mmHg 29%
14:00 +29°C° 0 mm 3 m/s 670 mmHg 28%
15:00 +30°C° 0 mm 3 m/s 670 mmHg 27%
16:00 +29°C° 0 mm 3 m/s 669 mmHg 30%
17:00 +28°C° 0 mm 3 m/s 669 mmHg 33%
18:00 +28°C° 0 mm 4 m/s 669 mmHg 36%
19:00 +26°C° 0 mm 3 m/s 669 mmHg 39%
20:00 +24°C° 0 mm 3 m/s 669 mmHg 42%
21:00 +21°C° 0 mm 2 m/s 669 mmHg 45%
22:00 +20°C° 0 mm 2 m/s 669 mmHg 48%
23:00 +20°C° 0 mm 3 m/s 669 mmHg 50%

20 Maio, Quinta-feira

Tempo Temperatura Precipitação Vento Pressão Humidade
00:00 +19°C° 0 mm 3 m/s 669 mmHg 53%
01:00 +18°C° 0 mm 2 m/s 669 mmHg 53%
02:00 +17°C° 0 mm 2 m/s 670 mmHg 54%
03:00 +17°C° 0 mm 2 m/s 670 mmHg 55%
04:00 +17°C° 0 mm 2 m/s 670 mmHg 55%
05:00 +18°C° 0 mm 2 m/s 671 mmHg 55%
06:00 +19°C° 0 mm 1 m/s 671 mmHg 55%
07:00 +21°C° 0 mm 1 m/s 672 mmHg 50%
08:00 +23°C° 0 mm 2 m/s 672 mmHg 44%
09:00 +25°C° 0 mm 2 m/s 672 mmHg 39%
10:00 +26°C° 0 mm 2 m/s 673 mmHg 35%
11:00 +27°C° 0 mm 2 m/s 673 mmHg 31%
12:00 +29°C° 0 mm 2 m/s 673 mmHg 27%
13:00 +29°C° 0 mm 2 m/s 672 mmHg 25%
14:00 +30°C° 0 mm 2 m/s 672 mmHg 24%
15:00 +31°C° 0 mm 2 m/s 672 mmHg 23%
16:00 +30°C° 0 mm 2 m/s 672 mmHg 27%
17:00 +30°C° 0 mm 1 m/s 672 mmHg 30%
18:00 +29°C° 0 mm 1 m/s 671 mmHg 34%
19:00 +27°C° 0 mm 2 m/s 671 mmHg 35%
20:00 +25°C° 0 mm 2 m/s 671 mmHg 37%
21:00 +24°C° 0 mm 3 m/s 671 mmHg 38%
22:00 +23°C° 0 mm 2 m/s 671 mmHg 39%
23:00 +21°C° 0 mm 2 m/s 671 mmHg 41%

21 Maio, Sexta-feira

Tempo Temperatura Precipitação Vento Pressão Humidade
00:00 +21°C° 0 mm 2 m/s 671 mmHg 42%
01:00 +20°C° 0 mm 2 m/s 671 mmHg 43%
02:00 +20°C° 0 mm 2 m/s 671 mmHg 44%
03:00 +20°C° 0 mm 1 m/s 671 mmHg 45%
04:00 +21°C° 0 mm 1 m/s 672 mmHg 46%
05:00 +21°C° 0 mm 1 m/s 672 mmHg 47%
06:00 +22°C° 0 mm 1 m/s 672 mmHg 48%
07:00 +24°C° 0 mm 1 m/s 673 mmHg 43%
08:00 +26°C° 0 mm 2 m/s 673 mmHg 37%
09:00 +28°C° 0 mm 2 m/s 674 mmHg 32%
10:00 +29°C° 0 mm 2 m/s 674 mmHg 29%
11:00 +30°C° 0 mm 2 m/s 673 mmHg 27%
12:00 +33°C° 0 mm 3 m/s 673 mmHg 24%
13:00 +32°C° 0 mm 2 m/s 673 mmHg 23%
14:00 +34°C° 0 mm 2 m/s 673 mmHg 22%
15:00 +34°C° 0 mm 2 m/s 673 mmHg 21%
16:00 +34°C° 0 mm 2 m/s 672 mmHg 24%
17:00 +32°C° 0 mm 2 m/s 672 mmHg 27%
18:00 +31°C° 0 mm 1 m/s 672 mmHg 30%
19:00 +29°C° 0 mm 2 m/s 672 mmHg 31%
20:00 +27°C° 0 mm 2 m/s 672 mmHg 33%
21:00 +25°C° 0 mm 2 m/s 672 mmHg 34%
22:00 +24°C° 0 mm 2 m/s 672 mmHg 35%
23:00 +24°C° 0 mm 2 m/s 672 mmHg 36%

22 Maio, Sábado

Tempo Temperatura Precipitação Vento Pressão Humidade
00:00 +23°C° 0 mm 2 m/s 671 mmHg 37%
01:00 +23°C° 0 mm 1 m/s 671 mmHg 37%
02:00 +22°C° 0 mm 1 m/s 671 mmHg 38%
03:00 +22°C° 0 mm 1 m/s 671 mmHg 39%
04:00 +22°C° 0 mm 1 m/s 671 mmHg 40%
05:00 +23°C° 0 mm 1 m/s 671 mmHg 42%
06:00 +23°C° 0 mm 1 m/s 672 mmHg 44%
07:00 +25°C° 0 mm 1 m/s 672 mmHg 39%
08:00 +27°C° 0 mm 1 m/s 672 mmHg 34%
09:00 +29°C° 0 mm 2 m/s 672 mmHg 29%
10:00 +30°C° 0 mm 2 m/s 672 mmHg 27%
11:00 +32°C° 0 mm 2 m/s 672 mmHg 25%
12:00 +34°C° 0 mm 3 m/s 672 mmHg 24%
13:00 +33°C° 0 mm 4 m/s 671 mmHg 26%
14:00 +32°C° 0 mm 5 m/s 671 mmHg 29%
15:00 +30°C° 0 mm 7 m/s 670 mmHg 31%
16:00 +27°C° 0.8 mm 6 m/s 671 mmHg 47%
17:00 +22°C° 0.8 mm 5 m/s 671 mmHg 62%
18:00 +19°C° 0.8 mm 5 m/s 672 mmHg 78%
19:00 +19°C° 0.5 mm 4 m/s 671 mmHg 76%
20:00 +19°C° 0.5 mm 2 m/s 671 mmHg 74%
21:00 +20°C° 0.5 mm 1 m/s 670 mmHg 73%
22:00 +19°C° 0 mm 1 m/s 670 mmHg 73%
23:00 +19°C° 0 mm 1 m/s 670 mmHg 73%
Mostrar mais

Necessitamos do seu Consentimento

A Meteoprog e os seus Fornecedores de Serviços podem armazenar e aceder a dados pessoais como cookies, identificadores do dispositivo ou outras tecnologias semelhantes existentes no seu dispositivo e processar estes dados para personalizar conteúdos e anúncios, assim como funcionalidades nas redes sociais e análise de tráfego.

  • Armazenar e/ou aceder a informações no seu dispositivo

    Os cookies, identificadores do dispositivo ou outras informações podem ser armazenados ou acedidos no seu dispositivo, para os fins acima indicados.

  • Anúncios e conteúdos personalizados, medição de anúncios e conteúdos, dados sobre o público-alvo e desenvolvimento de produtos

    Os anúncios e os conteúdos podem ser personalizados com base num perfil. Podem ser adicionados dados adicionais para uma maior personalização dos anúncios e dos conteúdos. A eficácia dos anúncios e dos conteúdos pode ser medida. Podem ser obtidas informações sobre o público que visualizou os anúncios e os conteúdos. Estes dados podem ser usados para desenvolver ou melhorar sistemas, softwares ou a experiência do utilizador.

Ao clicar em "Eu concordo”, permitirá o uso de cookies, identificadores do dispositivo e web beacons mencionados ou outras tecnologias semelhantes. As configurações do navegador do seu dispositivo podem ser alteradas.

Para certos fins, podem ser invocados interesses legítimos ao invés de consentimento. Pode ler mais informação sobre este assunto na nossa Política de Privacidade e Cookies.